Home   Weather   Monrovia   Past weeks
Flag for Liberia

Past Weather in Monrovia, Liberia — Yesterday and Last 2 Weeks

Now
77 °F

Passing clouds.


Feels Like: 78 °F
Forecast: 81 / 76 °F
Wind: No wind

Location: Roberts Field

Current Time: Jul 17, 2019 at 6:49:47 am

Latest Report: Jul 17, 2019 at 6:00 am


Visibility: N/A

Pressure: 29.95 "Hg

Humidity: 94%

Dew Point: 75 °F

Location of MonroviaLocation

Past Weather in Monrovia — Graph

°F

Monrovia Temperature Yesterday

Maximum temperature yesterday: 84 °F (at 10:00 am)
Minimum temperature yesterday: 75 °F (at 3:30 am)
Average temperature yesterday: 79 °F

High & Low Weather Summary for the Past Weeks

 TemperatureHumidityPressure
High86 °F (Jul 2, 12:00 pm)100% (Jul 2, 7:00 am)30.04 "Hg (Jul 2, 7:00 am)
Low72 °F (Jul 14, 7:00 am)70% (Jul 15, 12:00 pm)29.83 "Hg (Jul 2, 4:00 pm)
Average78 °F90%29.94 "Hg
* Reported Jul 2 5:00 am — Jul 17 5:30 am, Monrovia. Weather by CustomWeather, © 2019

Note: Actual official high and low records may vary slightly from our data, if they occured in-between our weather recording intervals... More about our weather records

Advertising

Monrovia Weather History for the Previous 24 Hours

Scroll right to see more
 ConditionsComfort  
Time TempWeatherWind HumidityBarometerVisibility
5:30 am
Wed, Jul 17
77 °FPassing clouds.No wind89%29.95 "HgN/A
5:00 am77 °FPassing clouds.No wind89%29.95 "HgN/A
4:30 am77 °FPassing clouds.No wind89%29.95 "HgN/A
4:00 am77 °FPassing clouds.No wind89%29.95 "HgN/A
2:30 am77 °FPassing clouds.No wind89%29.95 "HgN/A
2:00 am77 °FPassing clouds.No wind89%29.95 "HgN/A
1:30 am77 °FPassing clouds.No wind89%29.98 "HgN/A
1:00 am77 °FPassing clouds.6 mph89%29.98 "HgN/A
12:30 am77 °FPassing clouds.6 mph89%29.98 "HgN/A
12:00 am77 °FPassing clouds.3 mph94%30.01 "HgN/A
11:30 pm
Tue, Jul 16
77 °FPassing clouds.6 mph94%30.01 "HgN/A
11:00 pm77 °FPassing clouds.No wind94%29.98 "HgN/A
10:30 pm77 °FPassing clouds.6 mph94%29.98 "HgN/A
10:00 pm77 °FPassing clouds.3 mph94%29.98 "HgN/A
9:30 pm77 °FPassing clouds.7 mph94%29.98 "HgN/A
9:00 pm79 °FPassing clouds.7 mph84%29.95 "HgN/A
8:30 pm79 °FPassing clouds.5 mph84%29.95 "Hg6 mi
8:00 pm79 °FPassing clouds.5 mph84%29.95 "Hg6 mi
7:30 pm79 °FPartly sunny.5 mph84%29.95 "HgN/A
7:00 pm79 °FPartly sunny.5 mph84%29.92 "HgN/A
6:30 pm79 °FPartly sunny.9 mph84%29.92 "HgN/A
6:00 pm79 °FPartly sunny.7 mph84%29.92 "HgN/A
5:30 pm81 °FPartly sunny.12 mph84%29.89 "HgN/A
5:00 pm81 °FPartly sunny.10 mph84%29.89 "HgN/A
4:30 pm82 °FPartly sunny.10 mph79%29.89 "HgN/A
4:00 pm82 °FPartly sunny.12 mph74%29.89 "HgN/A
3:30 pm82 °FPartly sunny.10 mph79%29.89 "HgN/A
3:00 pm81 °FPartly sunny.8 mph84%29.89 "HgN/A
2:30 pm81 °FPartly sunny.12 mph84%29.92 "HgN/A
2:00 pm81 °FPartly sunny.10 mph84%29.92 "HgN/A
1:30 pm81 °FPartly sunny.10 mph84%29.92 "HgN/A
1:00 pm82 °FPartly sunny.12 mph79%29.95 "HgN/A
12:30 pm81 °FPartly sunny.7 mph84%29.95 "HgN/A
12:00 pm81 °FPartly sunny.6 mph84%29.95 "HgN/A
11:30 am84 °FPartly sunny.12 mph70%29.95 "HgN/A
11:00 am82 °FPartly sunny.10 mph79%29.95 "HgN/A
10:30 am84 °FPartly sunny.9 mph74%29.95 "HgN/A
10:00 am84 °FPartly sunny.12 mph79%29.95 "HgN/A
9:30 am81 °FPartly sunny.8 mph84%29.95 "HgN/A
9:00 am81 °FPartly sunny.7 mph84%29.92 "HgN/A
8:30 am81 °FPartly sunny.7 mph84%29.92 "HgN/A
8:00 am77 °FPartly sunny.No wind94%29.92 "HgN/A
7:30 am75 °FFog.3 mph94%29.92 "Hg5 mi
7:00 am75 °FPassing clouds.No wind94%29.92 "HgN/A
6:30 am75 °FPassing clouds.No wind94%29.89 "HgN/A
6:00 am75 °FPassing clouds.No wind94%29.89 "HgN/A
Weather by CustomWeather, © 2019

See weather overview